{"data":{"norad_id":53900,"epoch":"2026-05-24T23:00:00.752256Z","epoch_age_seconds":78662,"freshness":"FRESH","line1":"1 53900U 22119Q   26144.95834204  .00000074  00000+0  22770-4 0  9996","line2":"2 53900  53.2164 341.3767 0001445  89.7703 270.3455 15.08838203203200","mean_motion":15.08838203,"eccentricity":0.0001445,"inclination_deg":53.2164,"raan_deg":341.3767,"arg_perigee_deg":89.7703,"mean_anomaly_deg":270.3455,"bstar":2.277e-5,"rev_number":20320,"period_min":95.43766834223,"perigee_km":538.74924716975,"apogee_km":540.74851618956,"semimajor_km":6917.8858816797,"source":"CELESTRAK","updated_at":"2026-05-25T13:38:17.584584Z"}}